Regional Weather Roundup
Issued by NWS Midland/Odessa, TX

Home | Current Version | Previous Version | Text Only | Print | Product List | Glossary On
Versions: 1 2 3 4 5 6 7 8 9 10 11 12 13 14 15 16 17 18 19 20 21 22 23 24 25 26 27 28 29 30 31 32 33 34 35 36 37 38 39 40 41 42 43 44 45 46 47 48 49 50
683
ASUS44 KMAF 242010
RWRMAF
MIDLAND AREA WEATHER ROUNDUP
NATIONAL WEATHER SERVICE MIDLAND TX
200 PM CST FRI NOV 24 2017

...IN SOUTHWEST TEXAS AND SOUTHEAST NEW MEXICO...

CITY           SKY/WX    TMP DP  RH WIND       PRES   REMARKS
ALPINE         SUNNY     80  26  13 W14G23    30.03F
ANDREWS        FAIR      78  30  17 SW10G18   29.85F
ARTESIA        SUNNY     81  34  18 VRB5      29.85F
BIG SPRING     CLOUDY    78  32  18 SW15      29.84F
CARLSBAD       SUNNY     82  32  16 SW9       29.83F
DRYDEN           N/A     81  27  14 SW16      29.88F
FORT STOCKTON  SUNNY     81  29  15 W12       29.88F
GUAD PASS      SUNNY     70  26  19 SW35G40   30.00F
HOBBS          SUNNY     81  28  15 W17       29.86F
LAMESA         FAIR      81  30  16 SW20      29.82F
MARFA          SUNNY     75  26  16 W20       30.04F
MIDLAND AIRPK  CLOUDY    78  31  18 SW12      29.85F
MIDLAND INTL   CLOUDY    78  30  17 SW15      29.84F
ODESSA         CLOUDY    76  29  17 SW16      29.85F
PECOS          SUNNY     83  30  14 SW20      29.84F
PRESIDIO       FAIR      75  28  18 SW8       29.99F
SEMINOLE       CLOUDY    82  29  14 SW15      29.84F
SNYDER         SUNNY     78  33  19 S16G24    29.80F
WINK           SUNNY     82  29  14 SW12      29.83F
$$
...OTHER STATIONS IN TEXAS...

CITY           SKY/WX    TMP DP  RH WIND       PRES   REMARKS
ABILENE        SUNNY     75  37  25 S16G25    29.81F
AMARILLO       CLOUDY    76  29  17 NW8       29.77F
AUSTIN         MOSUNNY   75  38  26 S14G23    29.90F
BROWNSVILLE    SUNNY     79  49  34 S8        29.95F
CORPUS CHRISTI MOSUNNY   77  37  23 SW7       29.94F
DALLAS FTW     MOSUNNY   77  36  22 S15       29.81F
DEL RIO        SUNNY     76  42  29 E9        29.89F
EL PASO        MOSUNNY   73  27  18 W15       29.98F
HOUSTON INT    MOSUNNY   71  34  25 S9        29.95F
LUBBOCK        CLOUDY    83  25  12 W14       29.78F
SAN ANGELO     SUNNY     81  33  17 SW14      29.83F
SAN ANTONIO    MOSUNNY   74  37  26 S7        29.93F
WACO           SUNNY     76  38  25 S14       29.87F
WICHITA FALLS  MOSUNNY   75  40  28 SW13      29.67F
$$
...OTHER LOCATIONS IN NEW MEXICO...

CITY           SKY/WX    TMP DP  RH WIND       PRES   REMARKS
ALAMOGORDO     SUNNY     68  27  21 CALM      30.01F
ALBUQUERQUE    MOSUNNY   63  26  24 S6        30.04F
CANNON AFB     CLOUDY    75  26  16 W20       29.85F
CLOVIS         CLOUDY    75  30  19 W21       29.83F
HOLLOMAN AFB   NOT AVBL
ROSWELL        SUNNY     78  32  18 S3        29.86F
RUIDOSO        SUNNY     68  12  11 NW20G28   30.08F
SANTA FE       SUNNY     66  28  24 W8        30.05F
TRUTH OR CONSE SUNNY    N/A N/A N/A CALM      30.02F
TUCUMCARI      CLOUDY    80  22  11 W12       29.78F
$$




USA.gov is the U.S. government's official web portal to all federal, state and local government web resources and services.